Regional Weather Roundup
Issued by NWS State College, PA

Home | Current Version | Previous Version | Text Only | Print | Product List | Glossary On
Versions: 1 2 3 4 5 6 7 8 9 10 11 12 13 14 15 16 17 18 19 20 21 22 23 24 25 26 27 28 29 30 31 32 33 34 35 36 37 38 39 40 41 42 43 44 45 46 47 48 49 50
000
ASUS41 KCTP 210710
RWRCTP

REGIONAL WEATHER ROUNDUP
NATIONAL WEATHER SERVICE STATE COLLEGE PA
300 AM EDT MON AUG 21 2017

Note: "fair" indicates few or no clouds below 12,000 feet with no
significant weather and/or obstructions to visibility.

* = STATION THAT DOES NOT REPORT PRECIPITATION /E.G. RAIN...SNOW...ETC/
    THUNDER OR FOG.

PAZ002>004-007>009-013>016-020>023-029>032-210800-
WESTERN PENNSYLVANIA

CITY           SKY/WX    TMP DP  RH WIND       PRES   REMARKS
ERIE           MOCLDY    73  58  59 S13       30.11S
MEADVILLE      CLOUDY    71  59  65 VRB3      30.15F
FRANKLIN*      PTCLDY    64  55  72 SE9       30.17F
NEW CASTLE     PTSUNNY   64  63  96 CALM      30.16S
BEAVER COUNTY  NOT AVBL
BUTLER*        PTCLDY    67  60  78 E3        30.17F
PITTSBURGH INT PTCLDY    68  64  87 CALM      30.16S
PITTSBURGH     PTCLDY    68  61  78 SE5       30.16S
INDIANA*       CLEAR     61  61 100 CALM      30.21S
LATROBE        PTCLDY    61  61 100 CALM      30.18S
WASHINGTON CO* CLOUDY    63  61  94 CALM      30.17S
$$

PAZ004>006-010>012-017>019-024>028-033>037-041-042-045-046-049>053-210800-
CENTRAL PENNSYLVANIA

CITY           SKY/WX    TMP DP  RH WIND       PRES   REMARKS
BRADFORD       CLOUDY    55  55 100 CALM      30.21S
DUBOIS         CLOUDY    61  56  83 E5        30.19F
CLEARFIELD     CLOUDY    58  57  97 CALM      30.21F
JOHNSTOWN      CLOUDY    67  62  84 SW5       30.23S
ALTOONA        CLEAR     61  61 100 CALM      30.21F
STATE COLLEGE  CLOUDY    62  59  91 SW3       30.20F
WILLIAMSPORT   CLOUDY    64  63  96 N3        30.17F
SELINSGROVE    CLOUDY    60  60 100 CALM      30.19S
FT INDIANTOWN  PTCLDY    62  62 100 CALM      30.19S
CAPITAL CITY   CLOUDY    66  62  87 CALM      30.19R
HARRISBURG     MOCLDY    67  64  90 E5        30.18S
YORK           PTCLDY    61  61 100 W3        30.20R
$$

PAZ038>040-043-044-047-048-054-055-060>062-067>071-210800-
EASTERN PENNSYLVANIA

CITY           SKY/WX    TMP DP  RH WIND       PRES   REMARKS
SCRANTON       CLEAR     63  61  93 E3        30.20S
MOUNT POCONO     N/A     60  59  96 CALM      30.23S
ALLENTOWN      CLEAR     66  63  90 CALM      30.18S
QUAKERTOWN*    SUNNY     63  63 100 CALM      30.20S
READING        CLEAR     65  64  97 CALM      30.19R
LANCASTER      PTCLDY    63  63 100 CALM      30.19S FOG
COATESVILLE    MOSUNNY   68  63  83 VRB3      30.22S
POTTSTOWN      CLEAR     63  63 100 CALM      30.21S
BLUE BELL        N/A     59  59 100 CALM      30.21R VSB 3/4
DOYLESTOWN     CLEAR     64  63  96 CALM      30.19R
WILLOW GROVE   NOT AVBL
NORTH PHILA    CLEAR     68  63  84 CALM      30.19F
PHILADELPHIA   PTCLDY    71  66  84 CALM      30.19S
$$




USA.gov is the U.S. government's official web portal to all federal, state and local government web resources and services.